Year,Month,Day,Hour,Minute,Value (Times are PST for temperature in C)
2010,09,29,09,51,13.80
2010,09,29,09,52,13.80
2010,09,29,09,53,13.80
2010,09,29,09,54,13.80
2010,09,29,09,55,13.80
2010,09,29,09,56,13.80
2010,09,29,09,57,13.80
2010,09,29,09,58,13.80
2010,09,29,09,59,13.80
2010,09,29,10,00,13.80
2010,09,29,10,01,13.90
2010,09,29,10,02,13.90
2010,09,29,10,03,13.90
2010,09,29,10,04,14.00
2010,09,29,10,05,14.00
2010,09,29,10,06,14.10
2010,09,29,10,07,14.20
2010,09,29,10,08,14.20
2010,09,29,10,09,14.20
2010,09,29,10,10,14.30
2010,09,29,10,11,14.30
2010,09,29,10,12,14.30
2010,09,29,10,13,14.30
2010,09,29,10,14,14.30
2010,09,29,10,15,14.40
2010,09,29,10,16,14.40
2010,09,29,10,17,14.40
2010,09,29,10,18,14.40
2010,09,29,10,19,14.50
2010,09,29,10,20,14.50
2010,09,29,10,21,14.50
2010,09,29,10,22,14.50
2010,09,29,10,23,14.50
2010,09,29,10,24,14.60
2010,09,29,10,25,14.60
2010,09,29,10,26,14.60
2010,09,29,10,27,14.60
2010,09,29,10,28,14.70
2010,09,29,10,29,14.70
2010,09,29,10,30,14.70
2010,09,29,10,31,14.70
2010,09,29,10,32,14.70
2010,09,29,10,33,14.70
2010,09,29,10,34,14.70
2010,09,29,10,35,14.70
2010,09,29,10,36,14.70
2010,09,29,10,37,14.80
2010,09,29,10,38,14.80
2010,09,29,10,39,14.80
2010,09,29,10,40,14.90
2010,09,29,10,41,15.00
2010,09,29,10,42,15.00
2010,09,29,10,43,15.00
2010,09,29,10,44,15.00
2010,09,29,10,45,15.10
2010,09,29,10,46,15.00
2010,09,29,10,47,15.00
2010,09,29,10,48,15.00
2010,09,29,10,49,15.00
2010,09,29,10,50,15.00
2010,09,29,10,51,15.00
2010,09,29,10,52,15.10
2010,09,29,10,53,15.10
2010,09,29,10,54,15.20
2010,09,29,10,55,15.20
2010,09,29,10,56,15.30
2010,09,29,10,57,15.30
2010,09,29,10,58,15.20
2010,09,29,10,59,15.20
2010,09,29,11,00,15.20
2010,09,29,11,01,15.20
2010,09,29,11,02,15.30
2010,09,29,11,03,15.30
2010,09,29,11,04,15.30
2010,09,29,11,05,15.30
2010,09,29,11,06,15.30
2010,09,29,11,07,15.30
2010,09,29,11,08,15.30
2010,09,29,11,09,15.30
2010,09,29,11,10,15.30
2010,09,29,11,11,15.40
2010,09,29,11,12,15.40
2010,09,29,11,13,15.40
2010,09,29,11,14,15.50
2010,09,29,11,15,15.50
2010,09,29,11,16,15.60
2010,09,29,11,17,15.60
2010,09,29,11,18,15.60
2010,09,29,11,19,15.70
2010,09,29,11,20,15.70
2010,09,29,11,21,15.70
2010,09,29,11,22,15.80
2010,09,29,11,23,15.90
2010,09,29,11,24,15.90
2010,09,29,11,25,16.00
2010,09,29,11,26,16.10
2010,09,29,11,27,16.10
2010,09,29,11,28,16.10
2010,09,29,11,29,16.10
2010,09,29,11,30,16.10
2010,09,29,11,31,16.10
2010,09,29,11,32,16.10
2010,09,29,11,33,16.10
2010,09,29,11,34,16.20
2010,09,29,11,35,16.20
2010,09,29,11,36,16.20
2010,09,29,11,37,16.30
2010,09,29,11,38,16.30
2010,09,29,11,39,16.30
2010,09,29,11,40,16.30
2010,09,29,11,41,16.30
2010,09,29,11,42,16.30
2010,09,29,11,43,16.30
2010,09,29,11,44,16.20
2010,09,29,11,45,16.20
2010,09,29,11,46,16.20
2010,09,29,11,47,16.20
2010,09,29,11,48,16.20
2010,09,29,11,49,16.20
2010,09,29,11,50,16.20
2010,09,29,11,51,16.20
2010,09,29,11,52,16.20
2010,09,29,11,53,16.30
2010,09,29,11,54,16.30
2010,09,29,11,55,16.30
2010,09,29,11,56,16.30
2010,09,29,11,57,16.40
2010,09,29,11,58,16.40
2010,09,29,11,59,16.40
2010,09,29,12,00,16.40
2010,09,29,12,01,16.40
2010,09,29,12,02,16.40
2010,09,29,12,03,16.40
2010,09,29,12,04,16.30
2010,09,29,12,05,16.40
2010,09,29,12,06,16.40
2010,09,29,12,07,16.40
2010,09,29,12,08,16.50
2010,09,29,12,09,16.50
2010,09,29,12,10,16.50
2010,09,29,12,11,16.50
2010,09,29,12,12,16.60
2010,09,29,12,13,16.60
2010,09,29,12,14,16.70
2010,09,29,12,15,16.80
2010,09,29,12,16,16.80
2010,09,29,12,17,16.80
2010,09,29,12,18,16.80
2010,09,29,12,19,16.80
2010,09,29,12,20,16.80
2010,09,29,12,21,16.80
2010,09,29,12,22,16.80
2010,09,29,12,23,16.80
2010,09,29,12,24,16.90
2010,09,29,12,25,16.90
2010,09,29,12,26,16.90
2010,09,29,12,27,16.90
2010,09,29,12,28,17.00
2010,09,29,12,29,17.10
2010,09,29,12,30,17.10
2010,09,29,12,31,17.00
2010,09,29,12,32,17.00
2010,09,29,12,33,17.00
2010,09,29,12,34,17.00
2010,09,29,12,35,17.00
2010,09,29,12,36,17.00
2010,09,29,12,37,17.00
2010,09,29,12,38,17.00
2010,09,29,12,39,16.90
2010,09,29,12,40,16.90
2010,09,29,12,41,16.90
2010,09,29,12,42,16.90
2010,09,29,12,43,16.90
2010,09,29,12,44,16.90
2010,09,29,12,45,16.90
2010,09,29,12,46,16.80
2010,09,29,12,47,16.80
2010,09,29,12,48,16.80
2010,09,29,12,49,16.80
2010,09,29,12,50,16.80
2010,09,29,12,51,16.80
2010,09,29,12,52,16.80
2010,09,29,12,53,16.80
2010,09,29,12,54,16.80
2010,09,29,12,55,16.80
2010,09,29,12,56,16.80
2010,09,29,12,57,16.80
2010,09,29,12,58,16.80
2010,09,29,12,59,16.90
2010,09,29,13,00,16.90
2010,09,29,13,01,16.90
2010,09,29,13,02,16.90
2010,09,29,13,03,16.90
2010,09,29,13,04,16.90
2010,09,29,13,05,16.90
2010,09,29,13,06,16.90
2010,09,29,13,07,17.00
2010,09,29,13,08,17.00
2010,09,29,13,09,17.10
2010,09,29,13,10,17.20
2010,09,29,13,11,17.20
2010,09,29,13,12,17.30
2010,09,29,13,13,17.30
2010,09,29,13,14,17.40
2010,09,29,13,15,17.40
2010,09,29,13,16,17.40
2010,09,29,13,17,17.40
2010,09,29,13,18,17.50
2010,09,29,13,19,17.50
2010,09,29,13,20,17.50
2010,09,29,13,21,17.50
2010,09,29,13,22,17.50
2010,09,29,13,23,17.40
2010,09,29,13,24,17.40
2010,09,29,13,25,17.50
2010,09,29,13,26,17.50
2010,09,29,13,27,17.60
2010,09,29,13,28,17.70
2010,09,29,13,29,17.70
2010,09,29,13,30,17.70
2010,09,29,13,31,17.60
2010,09,29,13,32,17.60
2010,09,29,13,33,17.50
2010,09,29,13,34,17.50
2010,09,29,13,35,17.50
2010,09,29,13,36,17.40
2010,09,29,13,37,17.30
2010,09,29,13,38,17.30
2010,09,29,13,39,17.40
2010,09,29,13,40,17.30
2010,09,29,13,41,17.30
2010,09,29,13,42,17.30
2010,09,29,13,43,17.20
2010,09,29,13,44,17.20
2010,09,29,13,45,17.20
2010,09,29,13,46,17.20
2010,09,29,13,47,17.20
2010,09,29,13,48,17.20
2010,09,29,13,49,17.20
2010,09,29,13,50,17.20
2010,09,29,13,51,17.10
2010,09,29,13,52,17.10
2010,09,29,13,53,17.10
2010,09,29,13,54,17.10
2010,09,29,13,55,17.10
2010,09,29,13,56,17.20
2010,09,29,13,57,17.20
2010,09,29,13,58,17.20
2010,09,29,13,59,17.30
2010,09,29,14,00,17.40
2010,09,29,14,01,17.50
2010,09,29,14,02,17.50
2010,09,29,14,03,17.50
2010,09,29,14,04,17.50
2010,09,29,14,05,17.50
2010,09,29,14,06,17.50
2010,09,29,14,07,17.40
2010,09,29,14,08,17.40
2010,09,29,14,09,17.40
2010,09,29,14,10,17.40
2010,09,29,14,11,17.50
2010,09,29,14,12,17.50
2010,09,29,14,13,17.40
2010,09,29,14,14,17.40
2010,09,29,14,15,17.40
2010,09,29,14,16,17.40
2010,09,29,14,17,17.40
2010,09,29,14,18,17.40
2010,09,29,14,19,17.40
2010,09,29,14,20,17.50
2010,09,29,14,21,17.60
2010,09,29,14,22,17.60
2010,09,29,14,23,17.60
2010,09,29,14,24,17.50
2010,09,29,14,25,17.60
2010,09,29,14,26,17.60
2010,09,29,14,27,17.60
2010,09,29,14,28,17.50
2010,09,29,14,29,17.50
2010,09,29,14,30,17.40
2010,09,29,14,31,17.40
2010,09,29,14,32,17.40
2010,09,29,14,33,17.40
2010,09,29,14,34,17.40
2010,09,29,14,35,17.50
2010,09,29,14,36,17.50
2010,09,29,14,37,17.60
2010,09,29,14,38,17.60
2010,09,29,14,39,17.70
2010,09,29,14,40,17.60
2010,09,29,14,41,17.60
2010,09,29,14,42,17.50
2010,09,29,14,43,17.50
2010,09,29,14,44,17.40
2010,09,29,14,45,17.40
2010,09,29,14,46,17.30
2010,09,29,14,47,17.30
2010,09,29,14,48,17.30
2010,09,29,14,49,17.30
2010,09,29,14,50,17.30
2010,09,29,14,51,17.30
2010,09,29,14,52,17.40
2010,09,29,14,53,17.40
2010,09,29,14,54,17.40
2010,09,29,14,55,17.40
2010,09,29,14,56,17.40
2010,09,29,14,57,17.40
2010,09,29,14,58,17.40
2010,09,29,14,59,17.40
2010,09,29,15,00,17.40
2010,09,29,15,01,17.40
2010,09,29,15,02,17.30
2010,09,29,15,03,17.30
2010,09,29,15,04,17.30
2010,09,29,15,05,17.30
2010,09,29,15,06,17.30
2010,09,29,15,07,17.40
2010,09,29,15,08,17.40
2010,09,29,15,09,17.40
2010,09,29,15,10,17.40
2010,09,29,15,11,17.40
2010,09,29,15,12,17.40
2010,09,29,15,13,17.40
2010,09,29,15,14,17.50
2010,09,29,15,15,17.50
2010,09,29,15,16,17.50
2010,09,29,15,17,17.50
2010,09,29,15,18,17.50
2010,09,29,15,19,17.40
2010,09,29,15,20,17.40
2010,09,29,15,21,17.40
2010,09,29,15,22,17.40
2010,09,29,15,23,17.40
2010,09,29,15,24,17.40
2010,09,29,15,25,17.40
2010,09,29,15,26,17.50
2010,09,29,15,27,17.50
2010,09,29,15,28,17.50
2010,09,29,15,29,17.50
2010,09,29,15,30,17.50
2010,09,29,15,31,17.50
2010,09,29,15,32,17.50
2010,09,29,15,33,17.50
2010,09,29,15,34,17.50
2010,09,29,15,35,17.50
2010,09,29,15,36,17.50
2010,09,29,15,37,17.50
2010,09,29,15,38,17.60
2010,09,29,15,39,17.60
2010,09,29,15,40,17.70
2010,09,29,15,41,17.70
2010,09,29,15,42,17.60
2010,09,29,15,43,17.60
2010,09,29,15,44,17.60
2010,09,29,15,45,17.60
2010,09,29,15,46,17.60
2010,09,29,15,47,17.60
2010,09,29,15,48,17.60
2010,09,29,15,49,17.50
2010,09,29,15,50,17.50
2010,09,29,15,51,17.40
2010,09,29,15,52,17.50
2010,09,29,15,53,17.50
2010,09,29,15,54,17.60
2010,09,29,15,55,17.60
2010,09,29,15,56,17.60
2010,09,29,15,57,17.60
2010,09,29,15,58,17.60
2010,09,29,15,59,17.60
2010,09,29,16,00,17.60
2010,09,29,16,01,17.60
2010,09,29,16,02,17.70
2010,09,29,16,03,17.70
2010,09,29,16,04,17.70
2010,09,29,16,05,17.70
2010,09,29,16,06,17.80
2010,09,29,16,07,17.80
2010,09,29,16,08,17.80
2010,09,29,16,09,17.80
2010,09,29,16,10,17.80
2010,09,29,16,11,17.80
2010,09,29,16,12,17.90
2010,09,29,16,13,17.90
2010,09,29,16,14,17.90
2010,09,29,16,15,17.80
2010,09,29,16,16,17.80
2010,09,29,16,17,17.70
2010,09,29,16,18,17.70
2010,09,29,16,19,17.80
2010,09,29,16,20,17.80
2010,09,29,16,21,17.80
2010,09,29,16,22,17.80
2010,09,29,16,23,17.80
2010,09,29,16,24,17.80
2010,09,29,16,25,17.70
2010,09,29,16,26,17.70
2010,09,29,16,27,17.70
2010,09,29,16,28,17.70
2010,09,29,16,29,17.70
2010,09,29,16,30,17.60
2010,09,29,16,31,17.50
2010,09,29,16,32,17.50
2010,09,29,16,33,17.40
2010,09,29,16,34,17.50
2010,09,29,16,35,17.50
2010,09,29,16,36,17.50
2010,09,29,16,37,17.50
2010,09,29,16,38,17.50
2010,09,29,16,39,17.50
2010,09,29,16,40,17.60
2010,09,29,16,41,17.60
2010,09,29,16,42,17.60
2010,09,29,16,43,17.60
2010,09,29,16,44,17.60
2010,09,29,16,45,17.50
2010,09,29,16,46,17.50
2010,09,29,16,47,17.50
2010,09,29,16,48,17.50
2010,09,29,16,49,17.50
2010,09,29,16,50,17.50
2010,09,29,16,51,17.50
2010,09,29,16,52,17.50
2010,09,29,16,53,17.50
2010,09,29,16,54,17.40
2010,09,29,16,55,17.40
2010,09,29,16,56,17.40
2010,09,29,16,57,17.30
2010,09,29,16,58,17.30
2010,09,29,16,59,17.30
2010,09,29,17,00,17.30
2010,09,29,17,01,17.40
2010,09,29,17,02,17.40
2010,09,29,17,03,17.30
2010,09,29,17,04,17.30
2010,09,29,17,05,17.30
2010,09,29,17,06,17.30
2010,09,29,17,07,17.30
2010,09,29,17,08,17.30
2010,09,29,17,09,17.30
2010,09,29,17,10,17.30
2010,09,29,17,11,17.30
2010,09,29,17,12,17.30
2010,09,29,17,13,17.30
2010,09,29,17,14,17.30
2010,09,29,17,15,17.30
2010,09,29,17,16,17.30
2010,09,29,17,17,17.30
2010,09,29,17,18,17.30
2010,09,29,17,19,17.30
2010,09,29,17,20,17.20
2010,09,29,17,21,17.20
2010,09,29,17,22,17.20
2010,09,29,17,23,17.20
2010,09,29,17,24,17.20
2010,09,29,17,25,17.20
2010,09,29,17,26,17.20
2010,09,29,17,27,17.20
2010,09,29,17,28,17.20
2010,09,29,17,29,17.20
2010,09,29,17,30,17.20
2010,09,29,17,31,17.20
2010,09,29,17,32,17.10
2010,09,29,17,33,17.10
2010,09,29,17,34,17.10
2010,09,29,17,35,17.10
2010,09,29,17,36,17.10
2010,09,29,17,37,17.10
2010,09,29,17,38,17.00
2010,09,29,17,39,17.00
2010,09,29,17,40,17.00
2010,09,29,17,41,16.90
2010,09,29,17,42,16.90
2010,09,29,17,43,16.90
2010,09,29,17,44,16.90
2010,09,29,17,45,16.90
2010,09,29,17,46,16.90
2010,09,29,17,47,16.90
2010,09,29,17,48,16.90
2010,09,29,17,49,16.90
2010,09,29,17,50,16.90
2010,09,29,17,51,16.90
2010,09,29,17,52,16.90
2010,09,29,17,53,16.80
2010,09,29,17,54,16.80
2010,09,29,17,55,16.80
2010,09,29,17,56,16.80
2010,09,29,17,57,16.80
2010,09,29,17,58,16.80
2010,09,29,17,59,16.80
2010,09,29,18,00,16.80
2010,09,29,18,01,16.80
2010,09,29,18,02,16.70
2010,09,29,18,03,16.70
2010,09,29,18,04,16.70
2010,09,29,18,05,16.70
2010,09,29,18,06,16.70
2010,09,29,18,07,16.70
2010,09,29,18,08,16.70
2010,09,29,18,09,16.60
2010,09,29,18,10,16.60
2010,09,29,18,11,16.60
2010,09,29,18,12,16.60
2010,09,29,18,13,16.60
2010,09,29,18,14,16.60
2010,09,29,18,15,16.50
2010,09,29,18,16,16.40
2010,09,29,18,17,16.40
2010,09,29,18,18,16.30
2010,09,29,18,19,16.30
2010,09,29,18,20,16.20
2010,09,29,18,21,16.10
2010,09,29,18,22,16.00
2010,09,29,18,23,16.00
2010,09,29,18,24,15.90
2010,09,29,18,25,15.90
2010,09,29,18,26,15.80
2010,09,29,18,27,15.70
2010,09,29,18,28,15.70
2010,09,29,18,29,15.60
2010,09,29,18,30,15.50
2010,09,29,18,31,15.40
2010,09,29,18,32,15.40
2010,09,29,18,33,15.30
2010,09,29,18,34,15.20
2010,09,29,18,35,15.20
2010,09,29,18,36,15.10
2010,09,29,18,37,15.00
2010,09,29,18,38,15.00
2010,09,29,18,39,15.00
2010,09,29,18,40,15.00
2010,09,29,18,41,15.00
2010,09,29,18,42,15.00
2010,09,29,18,43,15.00
2010,09,29,18,44,15.00
2010,09,29,18,45,15.00
2010,09,29,18,46,15.00
2010,09,29,18,47,15.00
